Weather History for Aberdeen / Amory, MS

Change the Weather History Date:

Friday, September 20, 2013

  Actual Average (KCBM) Record (KCBM)
Temperature  
Mean Temperature 78 °F -  
Max Temperature 93 °F 82 °F 100 °F (2010)
Min Temperature 64 °F 61 °F 47 °F (2012)
Cooling Degree Days 14    
Growing Degree Days 28 (Base 50)    
Moisture  
Dew Point 60 °F    
Average Humidity 56    
Maximum Humidity 59    
Minimum Humidity 52    
Precipitation  
Precipitation 1.13 in - - ()
Sea Level Pressure  
Sea Level Pressure 29.95 in    
Wind  
Wind Speed 3 mph (South)    
Max Wind Speed 13 mph    
Max Gust Speed 18 mph    
Visibility 6 miles    
Events Rain    
Averages and records for this station are not official NWS values.
T = Trace of Precipitation, MM = Missing Value Source: NWS Daily Summary

Daily Weather History Graph

Daily Weather History Graph

Search for Another Location

Airport:

Trip Planner

Search our weather history database for the weather conditions in past years. The results will help you decide how hot, cold, wet, or windy it might be!

Date:

Astronomy

Sep. 20, 2013 Rise Set
Actual Time 6:40 AM CDT 6:53 PM CDT
Civil Twilight 6:15 AM CDT 7:18 PM CDT
Nautical Twilight 5:46 AM CDT 7:47 PM CDT
Astronomical Twilight 5:17 AM CDT 8:16 PM CDT
Moon 7:33 PM CDT (9/20) 7:49 AM CDT (9/20)
Length of Visible Light 13h 02m
Length of Day
12h 12m
Full, 98% of the Moon is Illuminated
Sep 20
Full
Sep 26
Last Quarter
Oct 4
New
Oct 11
First Quarter
Oct 18
Full

Hourly Weather History & Observations

Time (CDT) Temp. Heat Index Dew Point Humidity Pressure Visibility Wind Dir Wind Speed Gust Speed Precip Events Conditions
12:15 AM 69.8 °F - 51.8 °F 53% 30.03 in 9.0 mi Calm Calm - N/A   Clear
12:35 AM 68.0 °F - 51.8 °F 56% 30.03 in 8.0 mi Calm Calm - N/A   Clear
12:55 AM 69.8 °F - 53.6 °F 56% 30.03 in 9.0 mi Calm Calm - N/A   Clear
1:15 AM 69.8 °F - 53.6 °F 56% 30.03 in 10.0 mi Calm Calm - N/A   Clear
1:35 AM 69.8 °F - 53.6 °F 56% 30.03 in 8.0 mi Calm Calm - N/A   Clear
1:55 AM 69.8 °F - 53.6 °F 56% 30.03 in 9.0 mi Calm Calm - N/A   Clear
2:15 AM 68.0 °F - 51.8 °F 56% 30.03 in 8.0 mi Calm Calm - N/A   Clear
2:35 AM 68.0 °F - 51.8 °F 56% 30.03 in 8.0 mi Calm Calm - N/A   Clear
2:55 AM 69.8 °F - 53.6 °F 56% 30.03 in 9.0 mi Calm Calm - N/A   Clear
3:15 AM 69.8 °F - 53.6 °F 56% 30.03 in 10.0 mi Calm Calm - N/A   Clear
3:35 AM 69.8 °F - 51.8 °F 53% 30.02 in 9.0 mi Calm Calm - N/A   Clear
3:55 AM 66.2 °F - 50.0 °F 56% 30.02 in 8.0 mi Calm Calm - N/A   Clear
4:15 AM 66.2 °F - 50.0 °F 56% 30.01 in 9.0 mi Calm Calm - N/A   Clear
4:35 AM 66.2 °F - 48.2 °F 52% 30.01 in 8.0 mi Calm Calm - N/A   Clear
4:55 AM 66.2 °F - 50.0 °F 56% 30.02 in 8.0 mi Calm Calm - N/A   Clear
5:15 AM 66.2 °F - 50.0 °F 56% 30.02 in 8.0 mi Calm Calm - N/A   Clear
5:35 AM 66.2 °F - 50.0 °F 56% 30.02 in 7.0 mi Calm Calm - N/A   Clear
5:55 AM 66.2 °F - 50.0 °F 56% 30.02 in 8.0 mi Calm Calm - N/A   Clear
6:15 AM 64.4 °F - 48.2 °F 56% 30.02 in 7.0 mi Calm Calm - N/A   Clear
6:35 AM 64.4 °F - 48.2 °F 56% 30.02 in 6.0 mi Calm Calm - N/A   Haze
6:55 AM 66.2 °F - 48.2 °F 52% 30.02 in 5.0 mi Calm Calm - N/A   Haze
7:15 AM 66.2 °F - 50.0 °F 56% 30.02 in 6.0 mi Calm Calm - N/A   Haze
7:35 AM 69.8 °F - 53.6 °F 56% 30.02 in 6.0 mi Calm Calm - N/A   Haze
7:55 AM 73.4 °F - 55.4 °F 53% 30.02 in 7.0 mi SSE 5.8 mph - N/A   Clear
8:15 AM 73.4 °F - 55.4 °F 53% 30.02 in 7.0 mi SE 3.5 mph - N/A   Clear
8:35 AM 73.4 °F - 57.2 °F 57% 30.02 in 7.0 mi Calm Calm - N/A   Clear
8:55 AM 78.8 °F - 60.8 °F 54% 30.02 in 7.0 mi SSE 6.9 mph - N/A   Clear
9:15 AM 80.6 °F 81.8 °F 62.6 °F 54% 30.02 in 7.0 mi SSE 5.8 mph - N/A   Clear
9:35 AM 82.4 °F 83.9 °F 64.4 °F 54% 30.01 in 7.0 mi SSE 5.8 mph - N/A   Clear
9:55 AM 84.2 °F 86.6 °F 66.2 °F 55% 30.01 in 7.0 mi SSE 6.9 mph - N/A   Clear
10:15 AM 86.0 °F 89.4 °F 68.0 °F 55% 30.01 in 7.0 mi South 9.2 mph - N/A   Clear
10:35 AM 87.8 °F 92.6 °F 69.8 °F 55% 30.01 in 7.0 mi SSE 9.2 mph - N/A   Clear
10:55 AM 87.8 °F 93.8 °F 71.6 °F 58% 30.00 in 8.0 mi SSE 9.2 mph 17.3 mph N/A   Clear
11:15 AM 87.8 °F 92.6 °F 69.8 °F 55% 29.99 in 7.0 mi SSE 8.1 mph - N/A   Clear
11:35 AM 89.6 °F 96.2 °F 71.6 °F 55% 29.98 in 8.0 mi South 11.5 mph - N/A   Clear
11:55 AM 89.6 °F 98.2 °F 73.4 °F 59% 29.97 in 7.0 mi South 9.2 mph - N/A   Clear
12:15 PM 91.4 °F 100.1 °F 73.4 °F 55% 29.96 in 7.0 mi SSE 10.4 mph - N/A   Partly Cloudy
12:35 PM 91.4 °F 100.1 °F 73.4 °F 55% 29.95 in 7.0 mi SSE 11.5 mph - N/A   Scattered Clouds
12:55 PM 93.2 °F 105.0 °F 75.2 °F 56% 29.93 in 8.0 mi South 12.7 mph 17.3 mph N/A   Partly Cloudy
1:15 PM 93.2 °F 105.0 °F 75.2 °F 56% 29.92 in 8.0 mi South 12.7 mph 16.1 mph N/A   Clear
1:35 PM 89.6 °F 96.2 °F 71.6 °F 55% 29.91 in 8.0 mi SSW 11.5 mph 17.3 mph N/A   Clear
1:55 PM 89.6 °F 96.2 °F 71.6 °F 55% 29.90 in 9.0 mi South 6.9 mph - N/A   Clear
2:15 PM 91.4 °F 100.1 °F 73.4 °F 55% 29.89 in 9.0 mi South 12.7 mph 18.4 mph N/A   Clear
2:35 PM 89.6 °F 96.2 °F 71.6 °F 55% 29.88 in 7.0 mi South 10.4 mph - N/A   Partly Cloudy
2:55 PM 89.6 °F 96.2 °F 71.6 °F 55% 29.87 in 8.0 mi South 6.9 mph - N/A   Partly Cloudy
3:15 PM 89.6 °F 96.2 °F 71.6 °F 55% 29.87 in 7.0 mi South 8.1 mph - N/A   Clear
3:35 PM 89.6 °F 96.2 °F 71.6 °F 55% 29.86 in 9.0 mi South 8.1 mph - N/A   Clear
3:55 PM 87.8 °F 92.6 °F 69.8 °F 55% 29.85 in 9.0 mi South 6.9 mph - N/A   Clear
4:15 PM 86.0 °F 90.4 °F 69.8 °F 58% 29.85 in 7.0 mi Calm Calm - N/A   Clear
4:35 PM 82.4 °F 84.6 °F 66.2 °F 58% 29.84 in 5.0 mi Calm Calm - N/A   Drizzle
4:55 PM 80.6 °F 82.3 °F 64.4 °F 58% 29.84 in 7.0 mi Calm Calm - N/A   Partly Cloudy
5:15 PM 80.6 °F 82.3 °F 64.4 °F 58% 29.84 in 7.0 mi Calm Calm - N/A   Partly Cloudy
5:35 PM 80.6 °F 82.3 °F 64.4 °F 58% 29.84 in 6.0 mi Calm Calm - N/A   Haze
5:55 PM 80.6 °F 81.8 °F 62.6 °F 54% 29.84 in 3.0 mi NW 8.1 mph - N/A Rain Light Rain
6:15 PM 77.0 °F - 60.8 °F 57% 29.84 in 2.0 mi Calm Calm - 0.01 in Rain Rain
6:35 PM 77.0 °F - 60.8 °F 57% 29.84 in 3.0 mi NNW 3.5 mph - 0.03 in Rain Light Rain
6:55 PM 75.2 °F - 59.0 °F 57% 29.86 in 1.2 mi NW 8.1 mph - 0.24 in Rain Heavy Rain
7:15 PM 75.2 °F - 57.2 °F 53% 29.86 in 1.5 mi Calm Calm - 0.07 in Rain Rain
7:35 PM 75.2 °F - 57.2 °F 53% 29.87 in 1.8 mi Calm Calm - 0.15 in Rain Light Rain
7:55 PM 75.2 °F - 57.2 °F 53% 29.87 in 1.2 mi Calm Calm - 0.27 in Rain Heavy Rain
8:15 PM 75.2 °F - 57.2 °F 53% 29.88 in 1.8 mi Calm Calm - 0.07 in Rain Heavy Rain
8:35 PM 75.2 °F - 57.2 °F 53% 29.87 in 1.0 mi Calm Calm - 0.20 in Rain Heavy Rain
8:55 PM 75.2 °F - 57.2 °F 53% 29.90 in 0.8 mi SW 12.7 mph - 0.38 in Rain Heavy Rain
9:15 PM 73.4 °F - 57.2 °F 57% 29.88 in 1.8 mi South 6.9 mph - 0.07 in Rain Rain
9:35 PM 73.4 °F - 57.2 °F 57% 29.88 in 2.5 mi South 9.2 mph - 0.11 in Rain Light Rain
9:55 PM 73.4 °F - 57.2 °F 57% 29.88 in 3.0 mi South 9.2 mph - 0.13 in Rain Light Rain
10:15 PM 73.4 °F - 57.2 °F 57% 29.88 in 4.0 mi South 6.9 mph - N/A Rain Light Rain
10:35 PM 73.4 °F - 57.2 °F 57% 29.87 in 4.0 mi South 5.8 mph - 0.01 in Rain Light Rain
10:55 PM 73.4 °F - 57.2 °F 57% 29.87 in 2.0 mi SSW 4.6 mph - 0.03 in Rain Rain
11:15 PM 73.4 °F - 57.2 °F 57% 29.86 in 3.0 mi South 6.9 mph - 0.01 in Rain Heavy Rain
11:35 PM 73.4 °F - 57.2 °F 57% 29.85 in 4.0 mi South 5.8 mph - 0.07 in   Light Drizzle
11:55 PM 73.4 °F - 57.2 °F 57% 29.84 in 3.0 mi South 3.5 mph - 0.08 in Rain Rain